Location: Seminole
(32.7190°N, 102.6440°W)
Time: 06:05:25
(UTC-05:00)

Meteor 2-10 - Visible Passes

Search period start: 19 October 2017 00:00
Search period end: 29 October 2017 00:00
Orbit: 738 x 869 km, 81.2° (Epoch: 18 October)

Date Brightness Start Highest point End Pass type
(mag) Time Alt. Az. Time Alt. Az. Time Alt. Az.
19 Oct 6.4 07:23:48 10° NNE 07:28:35 30° ENE 07:33:27 10° SE visible
19 Oct 4.3 20:20:39 10° SSE 20:25:15 38° E 20:29:54 10° NNE visible
19 Oct 6.5 22:03:57 10° WSW 22:07:17 18° WNW 22:10:38 10° NNW visible
20 Oct 6.9 06:58:23 10° NNE 07:02:25 20° ENE 07:06:29 10° ESE visible
20 Oct 4.9 19:55:20 10° SE 19:59:19 24° E 20:03:22 10° NE visible
20 Oct 5.9 21:36:52 10° SW 21:41:04 27° WNW 21:45:20 10° NNW visible
21 Oct 7.2 06:33:32 10° NE 06:36:10 13° ENE 06:38:50 10° E visible
21 Oct 5.1 21:10:11 10° SSW 21:14:54 41° WNW 21:19:43 10° N visible
22 Oct 4.3 20:43:50 10° SSW 20:48:48 65° W 20:53:53 10° N visible
23 Oct 5.0 07:20:54 10° N 07:26:24 58° E 07:32:00 10° SSE visible
23 Oct 3.8 20:17:44 10° S 20:22:45 80° E 20:27:52 10° N visible
24 Oct 5.8 06:55:07 10° N 07:00:18 39° ENE 07:05:35 10° SE visible
24 Oct 4.1 19:51:54 10° SSE 19:56:45 50° E 20:01:41 10° NNE visible
24 Oct 6.9 21:36:31 10° W 21:38:58 13° WNW 21:41:28 10° NW visible
25 Oct 6.4 06:29:31 10° NNE 06:34:10 26° ENE 06:38:51 10° SE visible
25 Oct 4.6 19:26:22 10° SSE 19:30:47 32° E 19:35:19 10° NNE visible
25 Oct 6.4 21:08:57 10° WSW 21:12:43 21° WNW 21:16:33 10° NNW visible
26 Oct 6.9 06:04:16 10° NNE 06:07:58 18° ENE 06:11:42 10° ESE visible
26 Oct 5.8 20:42:03 10° SW 20:46:31 32° WNW 20:51:06 10° NNW visible
27 Oct 7.2 05:39:50 10° NE 05:41:43 12° ENE 05:43:36 10° E visible
27 Oct 4.2 07:18:29 10° NNW 07:24:07 74° W 07:29:49 10° S visible
27 Oct 4.9 20:15:31 10° SSW 20:20:23 49° W 20:25:24 10° N visible
28 Oct 4.4 06:52:26 10° N 06:58:05 75° E 07:03:48 10° SSE visible
28 Oct 4.1 19:49:15 10° SSW 19:54:18 78° W 19:59:30 10° N visible
